EST,Max TemperatureF,Mean TemperatureF,Min TemperatureF,Max Dew PointF,MeanDew PointF,Min DewpointF,Max Humidity, Mean Humidity, Min Humidity, Max Sea Level PressureIn, Mean Sea Level PressureIn, Min Sea Level PressureIn, Max VisibilityMiles, Mean VisibilityMiles, Min VisibilityMiles, Max Wind SpeedMPH, Mean Wind SpeedMPH, Max Gust SpeedMPH,PrecipitationIn, CloudCover, Events, WindDirDegrees
2013-2-1,57,44,30,32,28,18,93,57,23,30.37,30.24,30.15,10,10,10,21,6,31,0.00,0,,265
2013-2-2,60,44,28,37,30,19,93,59,31,30.39,30.25,30.10,10,10,10,9,3,,0.00,1,,174
2013-2-3,62,48,35,36,33,32,93,63,32,30.09,30.02,29.92,10,10,10,17,5,26,0.00,1,,253
2013-2-4,55,42,30,37,32,28,100,71,36,30.16,30.09,30.05,10,10,10,6,1,,0.00,0,,131
2013-2-5,69,50,32,50,42,32,100,77,37,30.08,30.02,29.96,10,10,7,15,2,21,0.00,0,,222
2013-2-6,73,58,42,52,45,37,100,71,27,30.19,30.11,30.03,10,10,5,8,2,,0.00,0,,339
2013-2-7,57,50,42,55,50,43,100,99,82,30.17,30.04,29.76,10,7,3,14,3,22,0.00,5,Rain-Thunderstorm,31
2013-2-8,64,55,46,52,49,46,100,84,59,30.07,29.92,29.76,10,10,3,13,8,20,0.00,4,,283
2013-2-9,60,48,35,46,34,27,100,63,27,30.35,30.26,30.08,10,10,10,10,5,16,0.00,0,,1
2013-2-10,66,49,32,52,44,32,100,81,52,30.41,30.31,30.20,10,10,7,10,2,20,0.00,2,,90
2013-2-11,66,60,53,63,60,52,100,98,88,30.23,30.15,30.07,10,8,4,10,4,21,0.00,7,Rain,187
2013-2-12,62,56,51,55,52,48,100,86,63,30.13,30.00,29.90,10,9,3,10,3,16,0.00,8,Rain,9
2013-2-13,69,60,50,63,53,50,100,89,56,29.91,29.78,29.71,10,8,0,12,5,20,0.00,7,Fog-Rain-Thunderstorm,271
2013-2-14,53,48,42,45,42,36,100,81,54,30.08,30.02,29.88,10,10,10,7,3,,0.00,0,,326
2013-2-15,62,48,33,45,38,34,100,76,37,30.12,30.06,29.97,10,8,0,6,1,,0.00,2,Fog,44
2013-2-16,50,44,35,43,38,32,100,90,66,30.04,29.91,29.86,10,10,7,18,5,26,0.00,3,Rain,334
2013-2-17,48,39,30,27,16,12,86,41,25,30.31,30.21,30.09,10,10,10,15,9,23,0.00,0,,293
2013-2-18,55,42,28,32,27,21,93,54,29,30.43,30.37,30.28,10,10,10,9,1,,0.00,0,,141
2013-2-19,59,46,33,55,48,32,100,95,72,30.28,30.08,29.99,10,7,0,10,3,18,0.00,6,Fog-Rain,207
2013-2-20,60,46,32,45,33,27,100,62,33,30.17,30.10,30.06,10,10,0,8,3,,0.00,0,Fog,274
2013-2-21,68,50,33,43,37,32,100,54,30,30.20,30.14,30.08,10,10,10,8,4,,0.00,0,,50
2013-2-22,53,50,46,54,47,41,100,91,71,30.20,30.15,30.08,10,8,2,12,4,16,0.00,8,Rain,38
2013-2-23,53,48,42,54,46,43,100,100,100,30.08,29.94,29.81,10,6,0,9,4,,0.00,8,Fog-Rain,356
2013-2-24,68,56,44,52,47,43,100,83,40,30.01,29.95,29.81,10,9,1,8,3,,0.00,3,,317
2013-2-25,48,45,42,46,44,39,100,94,76,30.10,30.03,29.96,10,9,3,9,2,,0.00,3,Rain,40
2013-2-26,73,60,46,68,59,46,100,87,73,29.80,29.66,29.57,10,9,2,20,7,32,0.00,3,Rain,185
2013-2-27,60,53,46,54,42,36,100,69,48,29.90,29.84,29.73,10,10,7,13,7,22,0.00,1,,238
2013-2-28,60,50,41,41,36,32,100,61,36,29.91,29.85,29.80,10,10,10,16,7,26,0.00,0,,259